Orbital Elements at Epoch 2459000.5 (2020-May-31.0) TDB
Reference: JPL 10 (heliocentric ecliptic J2000)
Element | Value | Uncertainty (1-sigma) | Units |
e | .2225377914310735 | 6.482e-08 | |
a | 3.113576271094512 | 3.3386e-08 | au |
q | 2.420687884272942 | 2.0781e-07 | au |
i | 15.40157387864263 | 7.3651e-06 | deg |
node | 256.8543402372102 | 2.8911e-05 | deg |
peri | 124.573041327615 | 3.6726e-05 | deg |
M | 160.8505707584036 | 2.0599e-05 | deg |
tp | 2458103.881293294148 (2017-Dec-16.38129329) | 0.00010792 | TDB |
period | 2006.724209259563 5.49 | 3.2276e-05 8.837e-08 | d yr |
n | .1793968490233305 | 2.8854e-09 | deg/d |
Q | 3.806464657916082 | 4.0815e-08 | au |
|
| | Orbit Determination Parameters
Additional Information
|